TimeMST,TemperatureF,Dew PointF,Humidity,Sea Level PressureIn,VisibilityMPH,Wind Direction,Wind SpeedMPH,Gust SpeedMPH,PrecipitationIn,Events,Conditions,WindDirDegrees,DateUTC
12:15 AM,10.4,8.6,92,-9999,10.0,WSW,8.1,-,N/A,,Clear,250,2013-02-13 07:15:00
12:35 AM,10.4,8.6,92,-9999,10.0,WSW,10.4,-,N/A,,Clear,250,2013-02-13 07:35:00
12:55 AM,12.2,10.4,92,-9999,10.0,WSW,10.4,-,N/A,,Clear,250,2013-02-13 07:55:00
1:15 AM,15.8,12.2,86,-9999,10.0,West,12.7,-,N/A,,Clear,260,2013-02-13 08:15:00
1:35 AM,19.4,12.2,74,-9999,10.0,West,9.2,-,N/A,,Clear,260,2013-02-13 08:35:00
1:55 AM,17.6,12.2,79,-9999,10.0,West,9.2,-,N/A,,Clear,260,2013-02-13 08:55:00
2:15 AM,17.6,12.2,79,-9999,10.0,West,10.4,-,N/A,,Clear,260,2013-02-13 09:15:00
2:35 AM,17.6,12.2,79,-9999,10.0,West,12.7,-,N/A,,Clear,260,2013-02-13 09:35:00
2:55 AM,19.4,12.2,74,-9999,10.0,WSW,10.4,-,N/A,,Clear,250,2013-02-13 09:55:00
3:15 AM,17.6,12.2,79,-9999,10.0,WSW,10.4,-,N/A,,Clear,240,2013-02-13 10:15:00
3:35 AM,19.4,12.2,74,-9999,10.0,WSW,9.2,-,N/A,,Clear,240,2013-02-13 10:35:00
3:55 AM,21.2,12.2,68,-9999,10.0,WSW,10.4,-,N/A,,Clear,250,2013-02-13 10:55:00
4:15 AM,19.4,10.4,68,-9999,10.0,WSW,16.1,-,N/A,,Clear,250,2013-02-13 11:15:00
4:35 AM,19.4,10.4,68,-9999,10.0,WSW,15.0,20.7,N/A,,Clear,250,2013-02-13 11:35:00
4:55 AM,21.2,10.4,63,-9999,10.0,North,5.8,-,N/A,,Clear,10,2013-02-13 11:55:00
5:15 AM,23.0,12.2,63,-9999,10.0,Calm,Calm,-,N/A,,Clear,0,2013-02-13 12:15:00
5:35 AM,21.2,10.4,63,-9999,10.0,WSW,5.8,-,N/A,,Clear,250,2013-02-13 12:35:00
5:55 AM,21.2,10.4,63,-9999,10.0,WSW,6.9,-,N/A,,Clear,250,2013-02-13 12:55:00
6:15 AM,21.2,10.4,63,-9999,10.0,West,6.9,-,N/A,,Clear,260,2013-02-13 13:15:00
6:35 AM,21.2,10.4,63,-9999,10.0,West,8.1,-,N/A,,Clear,260,2013-02-13 13:35:00
6:55 AM,19.4,12.2,74,-9999,10.0,West,8.1,16.1,N/A,,Clear,270,2013-02-13 13:55:00
7:15 AM,21.2,12.2,68,-9999,10.0,West,9.2,-,N/A,,Clear,260,2013-02-13 14:15:00
7:35 AM,24.8,10.4,54,-9999,10.0,West,6.9,-,N/A,,Clear,270,2013-02-13 14:35:00
7:55 AM,23.0,10.4,59,-9999,10.0,West,6.9,-,N/A,,Clear,260,2013-02-13 14:55:00
8:15 AM,23.0,10.4,59,-9999,10.0,West,6.9,-,N/A,,Clear,260,2013-02-13 15:15:00
8:35 AM,21.2,12.2,68,-9999,10.0,WSW,9.2,-,N/A,,Clear,240,2013-02-13 15:35:00
9:15 AM,23.0,12.2,63,-9999,10.0,West,12.7,21.9,N/A,,Clear,260,2013-02-13 16:15:00
9:35 AM,23.0,14.0,68,-9999,10.0,West,17.3,21.9,N/A,,Clear,260,2013-02-13 16:35:00
9:55 AM,23.0,15.8,74,-9999,10.0,West,17.3,25.3,N/A,,Clear,270,2013-02-13 16:55:00
10:15 AM,23.0,15.8,74,-9999,10.0,West,16.1,25.3,N/A,,Clear,270,2013-02-13 17:15:00
10:35 AM,23.0,17.6,80,-9999,10.0,West,16.1,28.8,N/A,,Clear,260,2013-02-13 17:35:00
10:55 AM,24.8,17.6,74,-9999,10.0,West,18.4,24.2,N/A,,Clear,260,2013-02-13 17:55:00
11:15 AM,24.8,17.6,74,-9999,10.0,West,19.6,27.6,N/A,,Clear,260,2013-02-13 18:15:00
11:35 AM,24.8,19.4,80,-9999,10.0,WSW,18.4,25.3,N/A,,Unknown,250,2013-02-13 18:35:00
11:55 AM,23.0,19.4,86,-9999,10.0,WSW,16.1,-,N/A,Snow,Light Snow,240,2013-02-13 18:55:00
12:15 PM,24.8,19.4,80,-9999,7.0,West,19.6,24.2,N/A,,Scattered Clouds,260,2013-02-13 19:15:00
12:35 PM,23.0,19.4,86,-9999,7.0,WSW,18.4,28.8,N/A,,Clear,250,2013-02-13 19:35:00
12:55 PM,24.8,19.4,80,-9999,10.0,WSW,18.4,24.2,N/A,,Clear,250,2013-02-13 19:55:00
1:15 PM,26.6,19.4,74,-9999,10.0,West,20.7,27.6,N/A,,Clear,260,2013-02-13 20:15:00
1:35 PM,26.6,19.4,74,-9999,5.0,West,21.9,33.4,N/A,,Haze,260,2013-02-13 20:35:00
1:55 PM,26.6,19.4,74,-9999,7.0,WSW,19.6,26.5,N/A,Snow,Light Snow,250,2013-02-13 20:55:00
2:15 PM,26.6,21.2,80,-9999,7.0,WSW,18.4,27.6,N/A,,Mostly Cloudy,250,2013-02-13 21:15:00
2:35 PM,28.4,21.2,74,-9999,7.0,WSW,15.0,21.9,N/A,,Mostly Cloudy,250,2013-02-13 21:35:00
2:55 PM,28.4,21.2,74,-9999,10.0,WSW,13.8,-,N/A,,Scattered Clouds,250,2013-02-13 21:55:00
3:15 PM,28.4,19.4,69,-9999,10.0,WSW,15.0,19.6,N/A,,Clear,250,2013-02-13 22:15:00
3:35 PM,30.2,19.4,64,-9999,10.0,West,15.0,18.4,N/A,,Clear,260,2013-02-13 22:35:00
3:55 PM,30.2,19.4,64,-9999,10.0,West,13.8,19.6,N/A,,Clear,260,2013-02-13 22:55:00
4:15 PM,28.4,19.4,69,-9999,10.0,West,13.8,20.7,N/A,,Clear,260,2013-02-13 23:15:00
4:35 PM,28.4,17.6,64,-9999,10.0,West,13.8,18.4,N/A,,Clear,260,2013-02-13 23:35:00
4:55 PM,28.4,17.6,64,-9999,10.0,West,11.5,-,N/A,,Clear,260,2013-02-13 23:55:00
5:15 PM,28.4,17.6,64,-9999,10.0,West,6.9,-,N/A,,Clear,270,2013-02-14 00:15:00
5:35 PM,26.6,17.6,69,-9999,10.0,West,8.1,-,N/A,,Clear,270,2013-02-14 00:35:00
5:55 PM,26.6,17.6,69,-9999,10.0,West,4.6,-,N/A,,Clear,270,2013-02-14 00:55:00
6:15 PM,24.8,17.6,74,-9999,10.0,WSW,3.5,-,N/A,,Clear,250,2013-02-14 01:15:00
6:35 PM,24.8,17.6,74,-9999,10.0,West,4.6,-,N/A,,Clear,260,2013-02-14 01:35:00
6:55 PM,24.8,17.6,74,-9999,10.0,Calm,Calm,-,N/A,,Clear,0,2013-02-14 01:55:00
7:15 PM,26.6,15.8,64,-9999,10.0,SSW,3.5,-,N/A,,Clear,210,2013-02-14 02:15:00
7:35 PM,21.2,14.0,74,-9999,10.0,WSW,9.2,-,N/A,,Clear,250,2013-02-14 02:35:00
7:55 PM,21.2,14.0,74,-9999,10.0,West,6.9,-,N/A,,Clear,260,2013-02-14 02:55:00
8:15 PM,21.2,14.0,74,-9999,10.0,WSW,6.9,-,N/A,,Clear,250,2013-02-14 03:15:00
8:35 PM,21.2,14.0,74,-9999,10.0,WNW,3.5,-,N/A,,Clear,300,2013-02-14 03:35:00
9:15 PM,23.0,14.0,68,-9999,10.0,North,3.5,-,N/A,,Clear,360,2013-02-14 04:15:00
9:35 PM,23.0,14.0,68,-9999,10.0,North,4.6,-,N/A,,Clear,360,2013-02-14 04:35:00
9:55 PM,21.2,14.0,74,-9999,10.0,NNW,3.5,-,N/A,,Clear,340,2013-02-14 04:55:00
10:15 PM,23.0,14.0,68,-9999,10.0,Calm,Calm,-,N/A,,Clear,0,2013-02-14 05:15:00
10:35 PM,24.8,14.0,64,-9999,10.0,Calm,Calm,-,N/A,,Clear,0,2013-02-14 05:35:00
10:55 PM,21.2,10.4,63,-9999,10.0,West,5.8,-,N/A,,Clear,270,2013-02-14 05:55:00
11:15 PM,21.2,10.4,63,-9999,10.0,West,6.9,-,N/A,,Scattered Clouds,270,2013-02-14 06:15:00
11:35 PM,21.2,10.4,63,-9999,10.0,West,8.1,-,N/A,,Scattered Clouds,270,2013-02-14 06:35:00
11:55 PM,21.2,12.2,68,-9999,10.0,West,8.1,-,N/A,,Mostly Cloudy,280,2013-02-14 06:55:00